FW5927 Weather Reports


Display with metric or nautical units.
time (UTC)temp
F
wind
direction
speed
MPH
gust
MPH
rain 1hr
in
rain 24hr
in
rain mn
in
humidity
%
barometer
mb
20220808094542 56 110 0.0 0.0 0.00 0.00 0.00 99 1015.4
20220808093041 57 75 0.0 1.0 0.00 0.00 0.00 99 1015.2
20220808091540 57 75 0.0 1.0 0.00 0.00 0.00 99 1015.3
20220808090040 57 108 0.0 1.0 0.00 0.00 0.00 99 1015.3
20220808084538 56 143 0.0 0.0 0.00 0.00 0.00 99 1015.2
20220808083039 56 143 0.0 0.0 0.00 0.00 0.00 99 1015.0
20220808081536 56 72 0.0 1.0 0.00 0.00 0.00 99 1014.7
20220808080037 56 72 0.0 0.0 0.00 0.00 0.00 99 1014.6
20220808074544 57 27 0.0 3.0 0.00 0.06 0.00 99 1014.7
20220808073040 57 341 1.0 2.0 0.00 0.06 0.00 99 1014.5
20220808071535 57 46 0.0 3.0 0.00 0.06 0.00 99 1014.4
20220808070033 57 48 0.0 2.0 0.00 0.06 0.00 99 1014.3
20220808064534 57 346 0.0 2.0 0.00 0.18 0.00 99 1014.6
20220808063031 56 69 0.0 2.0 0.00 0.18 0.00 99 1014.4
20220808061530 56 105 0.0 0.0 0.00 0.18 0.00 99 1014.7
20220808060030 56 105 0.0 0.0 0.00 0.18 0.00 99 1014.7
20220808054530 56 105 0.0 1.0 0.00 0.24 0.00 99 1014.8
20220808053029 56 105 0.0 1.0 0.00 0.24 0.00 99 1014.6
20220808051528 56 98 0.0 1.0 0.00 0.24 0.00 99 1014.3
20220808050029 56 97 0.0 1.0 0.00 0.24 0.00 99 1014.6
20220808044546 56 109 0.0 1.0 0.00 0.25 0.00 99 1014.5
20220808043035 56 147 0.0 0.0 0.00 0.25 0.00 99 1014.8
20220808041528 56 27 0.0 5.0 0.00 0.25 0.00 99 1014.4
20220808040025 56 17 1.0 4.0 0.00 0.25 0.00 99 1014.4
20220808034523 56 68 0.0 2.0 0.00 0.27 0.00 99 1014.6
20220808033036 56 14 0.0 1.0 0.00 0.27 0.00 99 1014.8
20220808031521 56 82 0.0 2.0 0.00 0.27 0.00 99 1014.6
20220808030019 56 48 0.0 2.0 0.00 0.27 0.00 99 1015.0
20220808024518 56 79 0.0 1.0 0.00 0.30 0.27 99 1014.9
20220808023019 56 58 1.0 6.0 0.00 0.30 0.27 99 1014.7
20220808021517 56 64 2.0 5.0 0.00 0.30 0.27 99 1014.2
20220808020017 56 231 0.0 3.0 0.00 0.30 0.27 99 1015.5
20220808014518 57 302 1.0 3.0 0.00 0.31 0.27 99 1015.5
20220808013016 57 91 0.0 2.0 0.00 0.31 0.27 99 1015.5
20220808011514 57 134 0.0 0.0 0.00 0.31 0.27 99 1015.3
20220808010014 56 134 0.0 0.0 0.00 0.31 0.27 99 1015.1
20220808004530 56 124 0.0 1.0 0.00 0.31 0.27 99 1015.1
20220808003014 57 68 0.0 2.0 0.00 0.31 0.27 99 1014.8
20220808001513 57 75 0.0 0.0 0.00 0.31 0.27 99 1015.2
20220808000018 57 52 0.0 3.0 0.00 0.31 0.27 99 1015.1
20220807234512 57 53 0.0 2.0 0.00 0.33 0.27 99 1015.1
20220807233010 57 77 0.0 2.0 0.00 0.33 0.27 99 1015.2
20220807231511 57 159 0.0 1.0 0.00 0.33 0.27 99 1015.6
20220807230009 57 94 0.0 2.0 0.00 0.33 0.27 99 1015.2
20220807224508 57 91 0.0 1.0 0.00 0.33 0.27 99 1015.2
20220807223012 57 91 0.0 1.0 0.00 0.33 0.27 99 1014.9
20220807221507 57 92 0.0 1.0 0.00 0.33 0.27 99 1014.9
20220807220005 57 72 0.0 1.0 0.00 0.33 0.27 99 1014.5
20220807214508 57 76 0.0 1.0 0.00 0.33 0.27 99 1014.5
20220807213003 57 76 0.0 2.0 0.00 0.33 0.27 98 1014.2
20220807211500 57 321 0.0 3.0 0.00 0.33 0.27 99 1014.5
20220807210059 57 353 1.0 3.0 0.00 0.33 0.27 98 1014.4
20220807204559 57 316 0.0 3.0 0.00 0.35 0.27 98 1014.4
20220807203057 57 60 1.0 4.0 0.00 0.35 0.27 98 1014.2
20220807201556 57 36 0.0 2.0 0.00 0.35 0.27 98 1014.3
20220807200055 58 51 0.0 2.0 0.00 0.35 0.27 98 1014.5
20220807194553 58 72 0.0 0.0 0.00 0.44 0.27 98 1014.7
20220807193053 58 72 0.0 0.0 0.00 0.44 0.27 98 1014.2
20220807191556 58 106 0.0 1.0 0.00 0.44 0.27 98 1014.4
20220807190052 58 106 0.0 0.0 0.00 0.44 0.27 97 1014.1
20220807184547 58 149 0.0 0.0 0.00 0.45 0.27 97 1014.3
20220807183046 58 164 0.0 0.0 0.00 0.45 0.27 97 1014.7
20220807181544 58 165 0.0 0.0 0.00 0.45 0.27 98 1014.8
20220807180043 58 165 0.0 0.0 0.00 0.45 0.27 98 1014.9
20220807174549 58 165 0.0 1.0 0.00 0.45 0.27 98 1014.9
20220807173045 58 102 0.0 2.0 0.00 0.45 0.27 98 1015.0
20220807171639 58 146 0.0 4.0 0.00 0.45 0.27 98 1015.0
20220807170036 58 352 0.0 1.0 0.00 0.45 0.27 99 1015.2
20220807164536 58 338 1.0 3.0 0.00 0.45 0.27 99 1015.5
20220807163038 58 8 0.0 3.0 0.00 0.45 0.27 99 1015.7
20220807161530 58 293 0.0 2.0 0.00 0.45 0.27 99 1015.9
20220807160040 57 61 0.0 2.0 0.00 0.45 0.27 99 1016.2
20220807154527 57 121 0.0 0.0 0.00 0.45 0.27 99 1016.6
20220807153026 57 120 0.0 2.0 0.00 0.45 0.27 99 1016.7
20220807151526 57 139 0.0 0.0 0.00 0.45 0.27 99 1016.9
20220807150025 56 139 0.0 2.0 0.00 0.45 0.27 99 1016.9
20220807144522 56 94 0.0 3.0 0.00 0.45 0.27 99 1016.9
20220807143025 56 108 0.0 1.0 0.00 0.45 0.27 99 1017.3
20220807141521 55 98 0.0 2.0 0.00 0.45 0.27 99 1017.2
20220807140018 55 69 0.0 2.0 0.00 0.45 0.27 99 1017.4
20220807134522 55 115 0.0 1.0 0.00 0.45 0.27 99 1017.9
20220807133016 54 161 1.0 4.0 0.00 0.45 0.27 99 1018.3
20220807131514 54 32 0.0 3.0 0.00 0.45 0.27 99 1018.1
20220807130013 54 305 1.0 4.0 0.00 0.45 0.27 99 1018.2
20220807124512 54 115 0.0 2.0 0.00 0.45 0.27 99 1018.3
20220807103055 53 337 4.0 8.0 0.00 0.45 0.27 99 1016.5
20220807101545 53 72 1.0 5.0 0.00 0.45 0.27 99 1016.7
20220807100047 52 105 0.0 0.0 0.00 0.45 0.27 99 1017.0